• In France
  • List of Countries
  • For 7 days
  • Water Temperature
  • Satellite Maps
  • Weather Map
  • Weather Widgets
  • user-avatar
    Login

    Hourly Weather Hamhŭng

    Today, 14 December, Thursday

    Time Temperature Precipitation Wind Pressure Humidity
    00:00 -8°C° 0 mm 2 mps 772 mmHg 43%
    01:00 -8°C° 0 mm 2 mps 772 mmHg 41%
    02:00 -8°C° 0 mm 2 mps 772 mmHg 39%
    03:00 -8°C° 0 mm 2 mps 772 mmHg 36%
    04:00 -8°C° 0 mm 2 mps 772 mmHg 35%
    05:00 -8°C° 0 mm 2 mps 772 mmHg 34%
    06:00 -7°C° 0 mm 1 mps 772 mmHg 33%
    07:00 -7°C° 0 mm 1 mps 772 mmHg 32%
    08:00 -6°C° 0 mm 1 mps 772 mmHg 30%
    09:00 -4°C° 0 mm 1 mps 772 mmHg 30%
    10:00 -2°C° 0 mm 1 mps 771 mmHg 27%
    11:00 0°C° 0 mm 1 mps 771 mmHg 25%
    12:00 +2°C° 0 mm 1 mps 770 mmHg 22%
    13:00 +2°C° 0 mm 1 mps 770 mmHg 24%
    14:00 +2°C° 0 mm 1 mps 770 mmHg 26%
    15:00 +2°C° 0 mm 1 mps 769 mmHg 29%
    16:00 +1°C° 0 mm 1 mps 769 mmHg 34%
    17:00 -1°C° 0 mm 1 mps 769 mmHg 40%
    18:00 -2°C° 0 mm 1 mps 769 mmHg 46%
    19:00 -2°C° 0 mm 1 mps 769 mmHg 47%
    20:00 -2°C° 0 mm 1 mps 769 mmHg 48%
    21:00 -3°C° 0 mm 0 mps 769 mmHg 47%
    22:00 -3°C° 0 mm 1 mps 769 mmHg 47%
    23:00 -3°C° 0 mm 1 mps 769 mmHg 46%

    Tomorrow, 15 December, Friday

    Time Temperature Precipitation Wind Pressure Humidity
    00:00 -3°C° 0 mm 1 mps 769 mmHg 46%
    01:00 -3°C° 0 mm 1 mps 768 mmHg 45%
    02:00 -3°C° 0 mm 1 mps 768 mmHg 45%
    03:00 -3°C° 0 mm 1 mps 768 mmHg 44%
    04:00 -6°C° 0 mm 2 mps 768 mmHg 44%
    05:00 -6°C° 0 mm 2 mps 767 mmHg 43%
    06:00 -6°C° 0 mm 2 mps 767 mmHg 42%
    07:00 -6°C° 0 mm 3 mps 767 mmHg 40%
    08:00 -6°C° 0 mm 3 mps 767 mmHg 38%
    09:00 -5°C° 0 mm 3 mps 766 mmHg 36%
    10:00 -2°C° 0 mm 3 mps 766 mmHg 38%
    11:00 -2°C° 0 mm 4 mps 765 mmHg 41%
    12:00 0°C° 0 mm 4 mps 765 mmHg 43%
    13:00 0°C° 0 mm 4 mps 764 mmHg 47%
    14:00 0°C° 0 mm 5 mps 764 mmHg 51%
    15:00 +1°C° 0 mm 5 mps 763 mmHg 55%
    16:00 -1°C° 0 mm 5 mps 763 mmHg 61%
    17:00 -2°C° 0 mm 5 mps 763 mmHg 67%
    18:00 -5°C° 0 mm 5 mps 763 mmHg 73%
    19:00 -5°C° 0 mm 5 mps 763 mmHg 72%
    20:00 -6°C° 0 mm 5 mps 763 mmHg 72%
    21:00 -6°C° 0 mm 5 mps 764 mmHg 72%
    22:00 -7°C° 0 mm 5 mps 764 mmHg 70%
    23:00 -7°C° 0 mm 5 mps 764 mmHg 69%

    Day after tomorrow, 16 December, Saturday

    Time Temperature Precipitation Wind Pressure Humidity
    00:00 -8°C° 0 mm 5 mps 764 mmHg 68%
    01:00 -10°C° 0 mm 5 mps 764 mmHg 66%
    02:00 -11°C° 0 mm 5 mps 764 mmHg 65%
    03:00 -11°C° 0 mm 5 mps 765 mmHg 64%
    04:00 -12°C° 0 mm 5 mps 764 mmHg 62%
    05:00 -12°C° 0 mm 5 mps 764 mmHg 59%
    06:00 -14°C° 0 mm 6 mps 764 mmHg 57%
    07:00 -14°C° 0 mm 6 mps 764 mmHg 55%
    08:00 -12°C° 0 mm 6 mps 764 mmHg 52%
    09:00 -12°C° 0 mm 6 mps 765 mmHg 50%
    10:00 -12°C° 0 mm 6 mps 764 mmHg 46%
    11:00 -11°C° 0 mm 6 mps 764 mmHg 42%
    12:00 -11°C° 0 mm 7 mps 764 mmHg 38%
    13:00 -11°C° 0 mm 7 mps 764 mmHg 40%
    14:00 -11°C° 0 mm 7 mps 763 mmHg 41%
    15:00 -12°C° 0 mm 8 mps 763 mmHg 42%
    16:00 -12°C° 0 mm 7 mps 764 mmHg 46%
    17:00 -12°C° 0 mm 6 mps 764 mmHg 49%
    18:00 -13°C° 0 mm 5 mps 765 mmHg 53%
    19:00 -13°C° 0 mm 5 mps 765 mmHg 55%
    20:00 -13°C° 0 mm 5 mps 766 mmHg 56%
    21:00 -14°C° 0 mm 4 mps 766 mmHg 58%
    22:00 -14°C° 0 mm 4 mps 767 mmHg 59%
    23:00 -14°C° 0 mm 4 mps 767 mmHg 59%

    17 December, Sunday

    Time Temperature Precipitation Wind Pressure Humidity
    00:00 -14°C° 0 mm 4 mps 767 mmHg 60%
    01:00 -15°C° 0 mm 4 mps 767 mmHg 59%
    02:00 -15°C° 0 mm 4 mps 767 mmHg 59%
    03:00 -15°C° 0 mm 4 mps 768 mmHg 59%
    04:00 -15°C° 0 mm 4 mps 767 mmHg 57%
    05:00 -15°C° 0 mm 4 mps 767 mmHg 56%
    06:00 -14°C° 0 mm 3 mps 767 mmHg 54%
    07:00 -14°C° 0 mm 3 mps 767 mmHg 52%
    08:00 -13°C° 0 mm 3 mps 768 mmHg 49%
    09:00 -13°C° 0 mm 3 mps 768 mmHg 47%
    10:00 -10°C° 0 mm 3 mps 768 mmHg 42%
    11:00 -9°C° 0 mm 4 mps 767 mmHg 37%
    12:00 -7°C° 0 mm 4 mps 767 mmHg 33%
    13:00 -7°C° 0 mm 4 mps 766 mmHg 33%
    14:00 -6°C° 0 mm 5 mps 766 mmHg 33%
    15:00 -6°C° 0 mm 5 mps 765 mmHg 33%
    16:00 -7°C° 0 mm 5 mps 765 mmHg 39%
    17:00 -10°C° 0 mm 5 mps 766 mmHg 45%
    18:00 -11°C° 0 mm 5 mps 766 mmHg 51%
    19:00 -11°C° 0 mm 5 mps 766 mmHg 53%
    20:00 -12°C° 0 mm 5 mps 766 mmHg 54%
    21:00 -12°C° 0 mm 5 mps 767 mmHg 56%
    22:00 -11°C° 0 mm 4 mps 767 mmHg 56%
    23:00 -11°C° 0 mm 4 mps 766 mmHg 57%

    18 December, Monday

    Time Temperature Precipitation Wind Pressure Humidity
    00:00 -11°C° 0 mm 4 mps 766 mmHg 57%
    01:00 -11°C° 0 mm 4 mps 766 mmHg 58%
    02:00 -11°C° 0 mm 4 mps 766 mmHg 59%
    03:00 -11°C° 0 mm 4 mps 766 mmHg 60%
    04:00 -11°C° 0 mm 4 mps 766 mmHg 62%
    05:00 -11°C° 0 mm 4 mps 765 mmHg 63%
    06:00 -11°C° 0 mm 4 mps 765 mmHg 64%
    07:00 -9°C° 0 mm 3 mps 765 mmHg 63%
    08:00 -9°C° 0 mm 3 mps 765 mmHg 63%
    09:00 -8°C° 0 mm 3 mps 765 mmHg 63%
    10:00 -7°C° 0 mm 4 mps 765 mmHg 57%
    11:00 -4°C° 0 mm 4 mps 764 mmHg 52%
    12:00 -2°C° 0 mm 5 mps 764 mmHg 47%
    13:00 -2°C° 0 mm 5 mps 763 mmHg 46%
    14:00 -3°C° 0 mm 6 mps 763 mmHg 45%
    15:00 -3°C° 0 mm 6 mps 763 mmHg 45%
    16:00 -4°C° 0 mm 5 mps 763 mmHg 51%
    17:00 -5°C° 0 mm 5 mps 763 mmHg 58%
    18:00 -7°C° 0 mm 4 mps 764 mmHg 65%
    19:00 -7°C° 0 mm 4 mps 764 mmHg 67%
    20:00 -8°C° 0 mm 4 mps 765 mmHg 69%
    21:00 -8°C° 0 mm 4 mps 765 mmHg 71%
    22:00 -8°C° 0 mm 4 mps 765 mmHg 71%
    23:00 -8°C° 0 mm 4 mps 765 mmHg 71%

    19 December, Tuesday

    Time Temperature Precipitation Wind Pressure Humidity
    00:00 -9°C° 0 mm 4 mps 765 mmHg 71%
    01:00 -9°C° 0 mm 4 mps 766 mmHg 71%
    02:00 -10°C° 0 mm 4 mps 766 mmHg 71%
    03:00 -10°C° 0 mm 4 mps 766 mmHg 70%
    04:00 -10°C° 0 mm 4 mps 766 mmHg 70%
    05:00 -11°C° 0 mm 4 mps 766 mmHg 70%
    06:00 -11°C° 0 mm 4 mps 767 mmHg 70%
    07:00 -11°C° 0 mm 4 mps 767 mmHg 68%
    08:00 -12°C° 0 mm 5 mps 767 mmHg 65%
    09:00 -12°C° 0 mm 5 mps 768 mmHg 63%
    10:00 -11°C° 0 mm 5 mps 768 mmHg 55%
    11:00 -8°C° 0 mm 5 mps 768 mmHg 47%
    12:00 -7°C° 0 mm 5 mps 768 mmHg 39%
    13:00 -7°C° 0 mm 5 mps 768 mmHg 39%
    14:00 -7°C° 0 mm 5 mps 767 mmHg 39%
    15:00 -7°C° 0 mm 4 mps 767 mmHg 39%
    16:00 -8°C° 0 mm 4 mps 768 mmHg 44%
    17:00 -9°C° 0 mm 4 mps 768 mmHg 50%
    18:00 -10°C° 0 mm 4 mps 769 mmHg 55%
    19:00 -10°C° 0 mm 4 mps 769 mmHg 57%
    20:00 -11°C° 0 mm 4 mps 769 mmHg 59%
    21:00 -11°C° 0 mm 4 mps 769 mmHg 60%
    22:00 -11°C° 0 mm 4 mps 769 mmHg 60%
    23:00 -12°C° 0 mm 4 mps 769 mmHg 59%
    Show more